EZS74ZT LGRP-LFSB

Flight info

Callsign EZS74ZT
Flight time 3h 8m
Altitude 36000
Route VANES UM601 UVRIT DCT KUGGI DCT YNN UL611 TUMBO DCT TIRCA DCT RODON DCT VAKSU DCT TNT DCT RESIA DCT ELMUR T718 TRA/N0364F180 T718 RIGVI
Aircraft A320/M-SDE3FGHIRWY/LB1

Departure

Time 2026-04-30 00:19
Airport Rhodes International Airport "Diagoras" (LGRP)

Arrival

Time 2026-04-30 03:28
Airport EuroAirport Basel–Mulhouse–Freiburg (LFSB)
Time Latitude Longitude Altitude Speed Heading
2026-04-29 23:53 36.40353 28.09090 28 ft 0 kts 160°
2026-04-30 00:10 36.40355 28.09089 28 ft 2 kts 160°
2026-04-30 00:10 36.40379 28.09078 28 ft 3 kts 159°
2026-04-30 00:10 36.40398 28.09067 28 ft 4 kts 128°
2026-04-30 00:10 36.40407 28.09037 28 ft 4 kts 85°
2026-04-30 00:11 36.40406 28.09026 28 ft 4 kts 71°
2026-04-30 00:11 36.40414 28.09052 28 ft 1 kts 70°
2026-04-30 00:13 36.40422 28.09079 28 ft 6 kts 70°
2026-04-30 00:14 36.40443 28.09155 28 ft 12 kts 71°
2026-04-30 00:14 36.40479 28.09277 28 ft 17 kts 67°
2026-04-30 00:14 36.40567 28.09401 28 ft 21 kts 40°
2026-04-30 00:14 36.40636 28.09578 28 ft 25 kts 70°
2026-04-30 00:15 36.40698 28.09788 28 ft 26 kts 70°
2026-04-30 00:15 36.40759 28.09995 28 ft 25 kts 70°
2026-04-30 00:15 36.40817 28.10196 28 ft 25 kts 71°
2026-04-30 00:15 36.40868 28.10372 28 ft 16 kts 71°
2026-04-30 00:16 36.40927 28.10435 28 ft 11 kts 358°
2026-04-30 00:16 36.40962 28.10418 28 ft 0 kts 325°
2026-04-30 00:17 36.40983 28.10393 27 ft 10 kts 307°
2026-04-30 00:18 36.41020 28.10281 28 ft 15 kts 271°
2026-04-30 00:18 36.41007 28.10214 28 ft 4 kts 250°
2026-04-30 00:18 36.40930 28.09952 27 ft 69 kts 250°
2026-04-30 00:18 36.40691 28.09144 31 ft 128 kts 250°
2026-04-30 00:19 36.40323 28.07909 31 ft 175 kts 249°
2026-04-30 00:19 36.39886 28.06407 389 ft 190 kts 254°
2026-04-30 00:19 36.39586 28.04792 987 ft 191 kts 255°
2026-04-30 00:19 36.39155 28.03193 1417 ft 205 kts 250°
2026-04-30 00:20 36.38620 28.01467 1743 ft 225 kts 249°
2026-04-30 00:20 36.38015 27.99579 2108 ft 245 kts 249°
2026-04-30 00:20 36.37363 27.97537 2650 ft 260 kts 249°
2026-04-30 00:20 36.36633 27.95463 3409 ft 265 kts 238°
2026-04-30 00:21 36.35326 27.93851 4152 ft 270 kts 210°
2026-04-30 00:21 36.33700 27.92720 4935 ft 273 kts 216°
2026-04-30 00:21 36.32525 27.90889 5671 ft 276 kts 250°
2026-04-30 00:21 36.32362 27.88542 6423 ft 278 kts 284°
2026-04-30 00:22 36.33175 27.86336 7165 ft 280 kts 304°
2026-04-30 00:22 36.34205 27.84274 7920 ft 282 kts 299°
2026-04-30 00:22 36.35113 27.82135 8668 ft 285 kts 296°
2026-04-30 00:22 36.35976 27.79914 9412 ft 288 kts 295°
2026-04-30 00:23 36.36828 27.77656 10124 ft 291 kts 295°
2026-04-30 00:23 36.37718 27.75290 10331 ft 314 kts 295°
2026-04-30 00:23 36.38505 27.72665 10474 ft 336 kts 284°
2026-04-30 00:23 36.38925 27.69767 10900 ft 346 kts 278°
2026-04-30 00:24 36.39286 27.66799 11530 ft 350 kts 278°
2026-04-30 00:24 36.39666 27.63799 12196 ft 353 kts 279°
2026-04-30 00:24 36.40053 27.60781 12873 ft 355 kts 279°
2026-04-30 00:24 36.40442 27.57740 13529 ft 358 kts 279°
2026-04-30 00:25 36.40832 27.54671 14125 ft 361 kts 279°
2026-04-30 00:25 36.41221 27.51589 14698 ft 363 kts 279°
2026-04-30 00:25 36.41612 27.48473 15257 ft 366 kts 279°
2026-04-30 00:25 36.42002 27.45329 15818 ft 369 kts 279°
2026-04-30 00:26 36.42391 27.42166 16373 ft 372 kts 279°
2026-04-30 00:26 36.42782 27.38985 16929 ft 374 kts 279°
2026-04-30 00:26 36.43178 27.35770 17473 ft 377 kts 279°
2026-04-30 00:26 36.43575 27.32541 18018 ft 380 kts 278°
2026-04-30 00:27 36.43976 27.29280 18534 ft 383 kts 279°
2026-04-30 00:27 36.44381 27.26001 19007 ft 386 kts 279°
2026-04-30 00:27 36.44788 27.22696 19483 ft 388 kts 279°
2026-04-30 00:27 36.45194 27.19368 19969 ft 391 kts 279°
2026-04-30 00:28 36.45601 27.16019 20458 ft 393 kts 279°
2026-04-30 00:28 36.46009 27.12652 20936 ft 396 kts 279°
2026-04-30 00:28 36.46415 27.09273 21405 ft 398 kts 279°
2026-04-30 00:28 36.46821 27.05897 21853 ft 400 kts 279°
2026-04-30 00:29 36.47238 27.02462 22293 ft 403 kts 279°
2026-04-30 00:29 36.47662 26.99007 22728 ft 405 kts 279°
2026-04-30 00:29 36.48086 26.95544 23144 ft 408 kts 279°
2026-04-30 00:29 36.48513 26.92044 23560 ft 410 kts 279°
2026-04-30 00:30 36.48938 26.88529 23903 ft 413 kts 279°
2026-04-30 00:30 36.49361 26.84989 24238 ft 415 kts 279°
2026-04-30 00:30 36.49784 26.81436 24570 ft 416 kts 279°
2026-04-30 00:30 36.50208 26.77871 24903 ft 418 kts 279°
2026-04-30 00:31 36.50630 26.74296 25236 ft 419 kts 279°
2026-04-30 00:31 36.51055 26.70700 25558 ft 421 kts 279°
2026-04-30 00:31 36.51481 26.67100 25869 ft 422 kts 279°
2026-04-30 00:31 36.51908 26.63478 26182 ft 424 kts 279°
2026-04-30 00:32 36.52331 26.59843 26499 ft 425 kts 279°
2026-04-30 00:32 36.52751 26.56188 26810 ft 427 kts 279°
2026-04-30 00:32 36.53168 26.52537 27129 ft 428 kts 279°
2026-04-30 00:32 36.53591 26.48876 27419 ft 429 kts 279°
2026-04-30 00:33 36.54020 26.45196 27710 ft 430 kts 279°
2026-04-30 00:33 36.54303 26.42753 27898 ft 431 kts 279°
2026-04-30 00:33 36.54732 26.39059 28184 ft 432 kts 279°
2026-04-30 00:33 36.55306 26.34100 28544 ft 434 kts 279°
2026-04-30 00:34 36.55590 26.31633 28709 ft 434 kts 279°
2026-04-30 00:34 36.56012 26.27913 28964 ft 436 kts 279°
2026-04-30 00:34 36.56434 26.24167 29218 ft 437 kts 279°
2026-04-30 00:34 36.56855 26.20415 29461 ft 438 kts 279°
2026-04-30 00:35 36.57268 26.16660 29697 ft 439 kts 278°
2026-04-30 00:35 36.57676 26.12896 29922 ft 440 kts 278°
2026-04-30 00:35 36.58082 26.09116 30163 ft 440 kts 278°
2026-04-30 00:35 36.58484 26.05349 30437 ft 438 kts 278°
2026-04-30 00:36 36.58883 26.01594 30702 ft 437 kts 278°
2026-04-30 00:36 36.59274 25.97898 30963 ft 436 kts 278°
2026-04-30 00:36 36.59675 25.94113 31225 ft 434 kts 278°
2026-04-30 00:36 36.60070 25.90395 31493 ft 433 kts 278°
2026-04-30 00:37 36.60495 25.86690 31750 ft 431 kts 282°
2026-04-30 00:37 36.61289 25.83101 32018 ft 429 kts 291°
2026-04-30 00:37 36.62516 25.79775 32277 ft 428 kts 300°
2026-04-30 00:37 36.64096 25.76642 32530 ft 427 kts 302°
2026-04-30 00:38 36.65699 25.73531 32778 ft 426 kts 302°
2026-04-30 00:38 36.67314 25.70382 33043 ft 425 kts 302°
2026-04-30 00:38 36.68878 25.67326 33282 ft 424 kts 302°
2026-04-30 00:38 36.70459 25.64230 33534 ft 423 kts 302°
2026-04-30 00:39 36.72036 25.61136 33791 ft 422 kts 302°
2026-04-30 00:39 36.73608 25.58053 34044 ft 421 kts 302°
2026-04-30 00:39 36.75174 25.54980 34266 ft 419 kts 302°
2026-04-30 00:39 36.76734 25.51918 34483 ft 418 kts 301°
2026-04-30 00:40 36.78293 25.48856 34704 ft 417 kts 301°
2026-04-30 00:40 36.79842 25.45806 34911 ft 416 kts 301°
2026-04-30 00:40 36.81390 25.42756 35105 ft 415 kts 301°
2026-04-30 00:40 36.82937 25.39712 35295 ft 414 kts 301°
2026-04-30 00:41 36.84474 25.36688 35480 ft 413 kts 301°
2026-04-30 00:41 36.86008 25.33658 35664 ft 412 kts 301°
2026-04-30 00:41 36.87539 25.30635 35833 ft 411 kts 301°
2026-04-30 00:41 36.89064 25.27622 35998 ft 410 kts 301°
2026-04-30 00:42 36.90572 25.24646 36060 ft 410 kts 301°
2026-04-30 00:42 36.93619 25.18616 36057 ft 410 kts 301°
2026-04-30 00:43 36.96658 25.12585 36058 ft 410 kts 301°
2026-04-30 00:43 36.99694 25.06543 36057 ft 410 kts 301°
2026-04-30 00:44 37.02725 25.00505 36058 ft 410 kts 301°
2026-04-30 00:44 37.05753 24.94465 36061 ft 410 kts 301°
2026-04-30 00:45 37.08781 24.88403 36067 ft 410 kts 301°
2026-04-30 00:45 37.11804 24.82345 36069 ft 410 kts 301°
2026-04-30 00:46 37.14822 24.76291 36070 ft 410 kts 301°
2026-04-30 00:46 37.17841 24.70238 36072 ft 409 kts 301°
2026-04-30 00:47 37.20854 24.64170 36073 ft 409 kts 301°
2026-04-30 00:47 37.23854 24.58099 36076 ft 409 kts 301°
2026-04-30 00:48 37.26855 24.52025 36074 ft 409 kts 301°
2026-04-30 00:48 37.29838 24.45993 36075 ft 409 kts 301°
2026-04-30 00:49 37.32840 24.39918 36074 ft 409 kts 301°
2026-04-30 00:49 37.35844 24.33824 36073 ft 410 kts 301°
2026-04-30 00:50 37.38839 24.27725 36069 ft 410 kts 301°
2026-04-30 00:50 37.41822 24.21624 36070 ft 410 kts 301°
2026-04-30 00:51 37.44808 24.15512 36075 ft 410 kts 301°
2026-04-30 00:51 37.47795 24.09401 36077 ft 410 kts 301°
2026-04-30 00:52 37.50778 24.03286 36079 ft 410 kts 301°
2026-04-30 00:52 37.53755 23.97159 36078 ft 410 kts 301°
2026-04-30 00:53 37.56727 23.91029 36078 ft 409 kts 301°
2026-04-30 00:53 37.59680 23.84943 36074 ft 409 kts 301°
2026-04-30 00:54 37.62648 23.78813 36077 ft 409 kts 301°
2026-04-30 00:54 37.65610 23.72687 36077 ft 409 kts 301°
2026-04-30 00:55 37.68571 23.66555 36075 ft 409 kts 301°
2026-04-30 00:55 37.73009 23.57338 36074 ft 409 kts 301°
2026-04-30 00:56 37.75958 23.51185 36076 ft 409 kts 301°
2026-04-30 00:56 37.78908 23.45049 36074 ft 409 kts 303°
2026-04-30 00:57 37.82622 23.39590 36075 ft 410 kts 313°
2026-04-30 00:57 37.86545 23.34429 36073 ft 410 kts 312°
2026-04-30 00:58 37.90491 23.29211 36072 ft 410 kts 312°
2026-04-30 00:58 37.94426 23.23990 36077 ft 410 kts 312°
2026-04-30 00:59 37.98368 23.18765 36079 ft 410 kts 312°
2026-04-30 00:59 38.02302 23.13535 36082 ft 410 kts 312°
2026-04-30 01:00 38.06229 23.08307 36084 ft 410 kts 312°
2026-04-30 01:00 38.10166 23.03061 36085 ft 409 kts 312°
2026-04-30 01:01 38.14092 22.97828 36087 ft 409 kts 312°
2026-04-30 01:01 38.17966 22.92649 36086 ft 409 kts 312°
2026-04-30 01:02 38.21879 22.87397 36086 ft 409 kts 311°
2026-04-30 01:02 38.25791 22.82121 36083 ft 409 kts 311°
2026-04-30 01:03 38.29714 22.76824 36088 ft 408 kts 311°
2026-04-30 01:03 38.33624 22.71574 36076 ft 408 kts 311°
2026-04-30 01:04 38.37506 22.66348 36096 ft 408 kts 311°
2026-04-30 01:04 38.41405 22.61082 36088 ft 408 kts 311°
2026-04-30 01:05 38.45301 22.55809 36095 ft 408 kts 311°
2026-04-30 01:05 38.49200 22.50532 36085 ft 408 kts 311°
2026-04-30 01:06 38.53094 22.45254 36091 ft 408 kts 311°
2026-04-30 01:06 38.56981 22.39965 36093 ft 408 kts 311°
2026-04-30 01:07 38.60863 22.34668 36096 ft 408 kts 311°
2026-04-30 01:07 38.64736 22.29377 36102 ft 408 kts 311°
2026-04-30 01:08 38.68610 22.24081 36102 ft 408 kts 311°
2026-04-30 01:08 38.72490 22.18776 36116 ft 408 kts 311°
2026-04-30 01:09 38.76363 22.13472 36113 ft 407 kts 311°
2026-04-30 01:09 38.80229 22.08157 36117 ft 407 kts 311°
2026-04-30 01:10 38.84089 22.02850 36117 ft 407 kts 311°
2026-04-30 01:10 38.87918 21.97567 36122 ft 407 kts 310°
2026-04-30 01:11 38.91772 21.92236 36118 ft 407 kts 311°
2026-04-30 01:11 38.95621 21.86915 36116 ft 406 kts 310°
2026-04-30 01:12 38.99469 21.81586 36120 ft 406 kts 310°
2026-04-30 01:12 39.03301 21.76257 36128 ft 406 kts 310°
2026-04-30 01:13 39.07128 21.70919 36125 ft 406 kts 310°
2026-04-30 01:13 39.10951 21.65584 36124 ft 406 kts 310°
2026-04-30 01:14 39.14779 21.60246 36126 ft 405 kts 310°
2026-04-30 01:14 39.18599 21.54909 36127 ft 405 kts 310°
2026-04-30 01:15 39.22419 21.49558 36129 ft 405 kts 310°
2026-04-30 01:15 39.26231 21.44217 36132 ft 405 kts 310°
2026-04-30 01:16 39.30037 21.38877 36130 ft 404 kts 310°
2026-04-30 01:16 39.33845 21.33528 36129 ft 404 kts 310°
2026-04-30 01:17 39.37640 21.28182 36128 ft 404 kts 310°
2026-04-30 01:17 39.41430 21.22816 36130 ft 404 kts 310°
2026-04-30 01:18 39.45222 21.17448 36129 ft 404 kts 310°
2026-04-30 01:18 39.48988 21.12111 36121 ft 404 kts 310°
2026-04-30 01:19 39.52778 21.06732 36125 ft 404 kts 310°
2026-04-30 01:19 39.56562 21.01347 36127 ft 404 kts 310°
2026-04-30 01:20 39.59705 20.96867 36130 ft 404 kts 310°
2026-04-30 01:20 39.63492 20.91465 36135 ft 404 kts 310°
2026-04-30 01:21 39.67275 20.86054 36137 ft 404 kts 310°
2026-04-30 01:21 39.71275 20.80926 36136 ft 408 kts 320°
2026-04-30 01:22 39.75874 20.76585 36135 ft 408 kts 321°
2026-04-30 01:22 39.80473 20.72253 36134 ft 408 kts 321°
2026-04-30 01:23 39.85071 20.67909 36134 ft 408 kts 321°
2026-04-30 01:23 39.89660 20.63553 36128 ft 409 kts 320°
2026-04-30 01:24 39.94253 20.59186 36123 ft 408 kts 320°
2026-04-30 01:24 39.98848 20.54816 36118 ft 409 kts 320°
2026-04-30 01:25 40.03435 20.50441 36116 ft 409 kts 320°
2026-04-30 01:25 40.07877 20.45847 36117 ft 405 kts 313°
2026-04-30 01:26 40.11923 20.40709 36115 ft 406 kts 313°
2026-04-30 01:26 40.15984 20.35581 36106 ft 406 kts 313°
2026-04-30 01:27 40.20016 20.30497 36104 ft 405 kts 313°
2026-04-30 01:27 40.24067 20.25363 36105 ft 405 kts 313°
2026-04-30 01:28 40.28111 20.20212 36103 ft 405 kts 313°
2026-04-30 01:28 40.32145 20.15050 36092 ft 405 kts 313°
2026-04-30 01:29 40.36177 20.09899 36087 ft 405 kts 313°
2026-04-30 01:29 40.40228 20.04733 36094 ft 406 kts 313°
2026-04-30 01:30 40.44264 19.99568 36085 ft 405 kts 313°
2026-04-30 01:30 40.48296 19.94395 36081 ft 405 kts 313°
2026-04-30 01:31 40.52328 19.89213 36081 ft 405 kts 313°
2026-04-30 01:31 40.56614 19.84400 36069 ft 409 kts 324°
2026-04-30 01:32 40.61463 19.80450 36070 ft 409 kts 324°
2026-04-30 01:32 40.66294 19.76474 36064 ft 409 kts 324°
2026-04-30 01:33 40.71120 19.72491 36060 ft 409 kts 324°
2026-04-30 01:33 40.75946 19.68510 36057 ft 409 kts 324°
2026-04-30 01:34 40.80772 19.64517 36055 ft 409 kts 324°
2026-04-30 01:34 40.85599 19.60513 36060 ft 409 kts 324°
2026-04-30 01:35 40.90426 19.56506 36059 ft 409 kts 324°
2026-04-30 01:35 40.95242 19.52509 36058 ft 409 kts 324°
2026-04-30 01:36 41.00034 19.48517 36055 ft 409 kts 324°
2026-04-30 01:36 41.04848 19.44507 36052 ft 409 kts 324°
2026-04-30 01:37 41.09668 19.40482 36055 ft 409 kts 323°
2026-04-30 01:37 41.14476 19.36446 36057 ft 409 kts 323°
2026-04-30 01:38 41.19293 19.32400 36059 ft 409 kts 323°
2026-04-30 01:38 41.24106 19.28361 36060 ft 409 kts 323°
2026-04-30 01:39 41.28888 19.24339 36061 ft 409 kts 323°
2026-04-30 01:39 41.33688 19.20294 36063 ft 409 kts 323°
2026-04-30 01:40 41.38496 19.16229 36063 ft 408 kts 323°
2026-04-30 01:40 41.43285 19.12179 36063 ft 408 kts 323°
2026-04-30 01:41 41.48020 19.07999 36066 ft 407 kts 320°
2026-04-30 01:41 41.52506 19.03419 36066 ft 405 kts 318°
2026-04-30 01:42 41.56922 18.98725 36063 ft 405 kts 318°
2026-04-30 01:42 41.61344 18.94113 36062 ft 406 kts 319°
2026-04-30 01:43 41.65829 18.89523 36062 ft 406 kts 319°
2026-04-30 01:43 41.70344 18.84911 36060 ft 406 kts 319°
2026-04-30 01:44 41.74793 18.80335 36061 ft 406 kts 319°
2026-04-30 01:44 41.79266 18.75699 36062 ft 406 kts 319°
2026-04-30 01:45 41.83724 18.71069 36060 ft 406 kts 319°
2026-04-30 01:45 41.88196 18.66427 36063 ft 405 kts 319°
2026-04-30 01:46 41.92657 18.61794 36062 ft 405 kts 319°
2026-04-30 01:46 41.97089 18.57203 36063 ft 405 kts 319°
2026-04-30 01:47 42.01461 18.52462 36064 ft 401 kts 312°
2026-04-30 01:47 42.05059 18.46784 36058 ft 399 kts 307°
2026-04-30 01:48 42.08581 18.41020 36053 ft 398 kts 307°
2026-04-30 01:48 42.12100 18.35261 36053 ft 398 kts 307°
2026-04-30 01:49 42.15613 18.29493 36051 ft 398 kts 307°
2026-04-30 01:49 42.19121 18.23730 36057 ft 397 kts 307°
2026-04-30 01:50 42.22624 18.17962 36056 ft 397 kts 307°
2026-04-30 01:50 42.26115 18.12193 36057 ft 397 kts 307°
2026-04-30 01:51 42.29609 18.06405 36055 ft 397 kts 307°
2026-04-30 01:51 42.33089 18.00632 36061 ft 396 kts 307°
2026-04-30 01:52 42.36576 17.94850 36059 ft 396 kts 307°
2026-04-30 01:52 42.40053 17.89079 36051 ft 396 kts 307°
2026-04-30 01:53 42.43527 17.83282 36050 ft 396 kts 306°
2026-04-30 01:53 42.46984 17.77496 36054 ft 396 kts 306°
2026-04-30 01:54 42.50450 17.71707 36055 ft 395 kts 307°
2026-04-30 01:54 42.53910 17.65920 36057 ft 395 kts 306°
2026-04-30 01:55 42.57341 17.60158 36060 ft 394 kts 306°
2026-04-30 01:55 42.60779 17.54351 36066 ft 394 kts 306°
2026-04-30 01:56 42.64213 17.48546 36066 ft 394 kts 306°
2026-04-30 01:56 42.67645 17.42754 36067 ft 393 kts 306°
2026-04-30 01:57 42.71076 17.36963 36069 ft 393 kts 306°
2026-04-30 01:57 42.74491 17.31162 36069 ft 393 kts 306°
2026-04-30 01:58 42.77901 17.25358 36071 ft 392 kts 306°
2026-04-30 01:58 42.81315 17.19556 36067 ft 392 kts 306°
2026-04-30 01:59 42.86405 17.10851 36072 ft 392 kts 306°
2026-04-30 02:00 42.89795 17.05030 36075 ft 391 kts 306°
2026-04-30 02:00 42.93179 16.99224 36078 ft 391 kts 306°
2026-04-30 02:01 42.96567 16.93407 36071 ft 391 kts 306°
2026-04-30 02:01 42.99949 16.87610 36073 ft 390 kts 306°
2026-04-30 02:02 43.03331 16.81788 36070 ft 390 kts 306°
2026-04-30 02:02 43.06693 16.75971 36069 ft 390 kts 306°
2026-04-30 02:03 43.10056 16.70139 36075 ft 390 kts 306°
2026-04-30 02:03 43.13400 16.64346 36088 ft 390 kts 306°
2026-04-30 02:04 43.16757 16.58514 36085 ft 390 kts 306°
2026-04-30 02:04 43.20106 16.52684 36087 ft 389 kts 306°
2026-04-30 02:05 43.23449 16.46840 36081 ft 389 kts 306°
2026-04-30 02:05 43.26216 16.41986 36085 ft 389 kts 306°
2026-04-30 02:06 43.29551 16.36146 36086 ft 389 kts 306°
2026-04-30 02:06 43.32887 16.30310 36088 ft 389 kts 306°
2026-04-30 02:07 43.36226 16.24446 36089 ft 389 kts 305°
2026-04-30 02:07 43.39554 16.18576 36092 ft 389 kts 305°
2026-04-30 02:08 43.42873 16.12712 36094 ft 388 kts 305°
2026-04-30 02:08 43.46168 16.06875 36097 ft 388 kts 305°
2026-04-30 02:09 43.49482 16.01004 36106 ft 388 kts 305°
2026-04-30 02:09 43.52797 15.95123 36110 ft 388 kts 305°
2026-04-30 02:10 43.56102 15.89227 36116 ft 388 kts 305°
2026-04-30 02:10 43.59400 15.83339 36124 ft 388 kts 305°
2026-04-30 02:11 43.62710 15.77438 36131 ft 388 kts 305°
2026-04-30 02:11 43.66011 15.71528 36137 ft 388 kts 305°
2026-04-30 02:12 43.69303 15.65625 36141 ft 388 kts 305°
2026-04-30 02:12 43.72591 15.59706 36148 ft 388 kts 305°
2026-04-30 02:13 43.75872 15.53792 36149 ft 388 kts 305°
2026-04-30 02:13 43.79150 15.47873 36152 ft 387 kts 305°
2026-04-30 02:14 43.82425 15.41948 36155 ft 387 kts 305°
2026-04-30 02:14 43.85696 15.36014 36152 ft 387 kts 305°
2026-04-30 02:15 43.88960 15.30090 36152 ft 387 kts 305°
2026-04-30 02:15 43.92230 15.24135 36152 ft 387 kts 305°
2026-04-30 02:16 43.95469 15.18227 36155 ft 388 kts 305°
2026-04-30 02:16 43.98736 15.12255 36158 ft 388 kts 305°
2026-04-30 02:17 44.01999 15.06290 36158 ft 388 kts 305°
2026-04-30 02:17 44.05263 15.00304 36162 ft 388 kts 305°
2026-04-30 02:18 44.08515 14.94317 36162 ft 388 kts 304°
2026-04-30 02:18 44.11763 14.88323 36167 ft 388 kts 305°
2026-04-30 02:19 44.14991 14.82363 36164 ft 388 kts 305°
2026-04-30 02:19 44.18234 14.76369 36162 ft 388 kts 305°
2026-04-30 02:20 44.21475 14.70365 36162 ft 387 kts 304°
2026-04-30 02:20 44.24707 14.64349 36160 ft 388 kts 304°
2026-04-30 02:21 44.27948 14.58319 36165 ft 388 kts 305°
2026-04-30 02:21 44.31182 14.52296 36168 ft 388 kts 304°
2026-04-30 02:22 44.34416 14.46248 36171 ft 389 kts 305°
2026-04-30 02:22 44.37650 14.40196 36175 ft 389 kts 305°
2026-04-30 02:23 44.40880 14.34128 36163 ft 389 kts 305°
2026-04-30 02:23 44.44108 14.28053 36168 ft 389 kts 305°
2026-04-30 02:24 44.47339 14.21963 36171 ft 390 kts 305°
2026-04-30 02:24 44.50570 14.15863 36167 ft 390 kts 305°
2026-04-30 02:25 44.53783 14.09773 36178 ft 391 kts 305°
2026-04-30 02:25 44.57033 14.03598 36170 ft 391 kts 305°
2026-04-30 02:26 44.60243 13.97494 36178 ft 392 kts 305°
2026-04-30 02:26 44.63496 13.91291 36179 ft 392 kts 305°
2026-04-30 02:27 44.66706 13.85160 36178 ft 392 kts 305°
2026-04-30 02:27 44.69946 13.78973 36175 ft 393 kts 305°
2026-04-30 02:28 44.73185 13.72772 36177 ft 394 kts 305°
2026-04-30 02:28 44.76418 13.66553 36185 ft 394 kts 305°
2026-04-30 02:29 44.79654 13.60309 36180 ft 395 kts 305°
2026-04-30 02:29 44.82893 13.54066 36187 ft 395 kts 305°
2026-04-30 02:30 44.86135 13.47802 36189 ft 396 kts 305°
2026-04-30 02:30 44.89375 13.41517 36193 ft 397 kts 305°
2026-04-30 02:31 44.92617 13.35212 36205 ft 397 kts 305°
2026-04-30 02:31 44.95860 13.28896 36205 ft 397 kts 305°
2026-04-30 02:32 44.99104 13.22568 36208 ft 398 kts 305°
2026-04-30 02:32 45.02318 13.16265 36210 ft 398 kts 305°
2026-04-30 02:33 45.05560 13.09900 36210 ft 399 kts 305°
2026-04-30 02:33 45.08807 13.03527 36213 ft 400 kts 305°
2026-04-30 02:34 45.12060 12.97130 36214 ft 400 kts 305°
2026-04-30 02:34 45.15310 12.90724 36221 ft 401 kts 306°
2026-04-30 02:35 45.18564 12.84294 36222 ft 401 kts 305°
2026-04-30 02:35 45.21811 12.77850 36223 ft 402 kts 305°
2026-04-30 02:36 45.25064 12.71379 36231 ft 403 kts 305°
2026-04-30 02:36 45.28321 12.64893 36236 ft 403 kts 305°
2026-04-30 02:37 45.31580 12.58406 36238 ft 403 kts 306°
2026-04-30 02:37 45.34837 12.51900 36245 ft 404 kts 305°
2026-04-30 02:38 45.38081 12.45378 36248 ft 404 kts 305°
2026-04-30 02:38 45.41332 12.38839 36247 ft 404 kts 306°
2026-04-30 02:39 45.44585 12.32307 36239 ft 405 kts 306°
2026-04-30 02:39 45.47841 12.25728 36249 ft 405 kts 305°
2026-04-30 02:40 45.51079 12.19155 36247 ft 406 kts 305°
2026-04-30 02:40 45.54308 12.12605 36268 ft 406 kts 306°
2026-04-30 02:41 45.57552 12.06010 36243 ft 406 kts 306°
2026-04-30 02:41 45.60806 11.99389 36235 ft 407 kts 306°
2026-04-30 02:42 45.64059 11.92761 36236 ft 408 kts 306°
2026-04-30 02:42 45.67309 11.86112 36236 ft 408 kts 306°
2026-04-30 02:43 45.70548 11.79451 36243 ft 409 kts 306°
2026-04-30 02:43 45.73798 11.72760 36243 ft 409 kts 306°
2026-04-30 02:44 45.77045 11.66057 36250 ft 410 kts 306°
2026-04-30 02:44 45.80289 11.59361 36248 ft 410 kts 306°
2026-04-30 02:45 45.83556 11.52611 36265 ft 411 kts 306°
2026-04-30 02:45 45.86805 11.45860 36262 ft 411 kts 306°
2026-04-30 02:46 45.90044 11.39102 36249 ft 411 kts 306°
2026-04-30 02:46 45.93290 11.32337 36252 ft 411 kts 306°
2026-04-30 02:47 45.96528 11.25557 36249 ft 412 kts 306°
2026-04-30 02:47 45.99768 11.18760 36240 ft 412 kts 306°
2026-04-30 02:48 46.02988 11.11926 36217 ft 413 kts 304°
2026-04-30 02:48 46.05512 11.06093 36233 ft 414 kts 302°
2026-04-30 02:49 46.08463 10.98969 36228 ft 415 kts 302°
2026-04-30 02:49 46.11435 10.91832 36221 ft 415 kts 303°
2026-04-30 02:50 46.14442 10.84696 36225 ft 416 kts 303°
2026-04-30 02:50 46.17465 10.77553 36220 ft 417 kts 303°
2026-04-30 02:51 46.20478 10.70391 36216 ft 418 kts 303°
2026-04-30 02:51 46.23480 10.63211 36215 ft 418 kts 303°
2026-04-30 02:52 46.26490 10.56001 36209 ft 418 kts 303°
2026-04-30 02:52 46.29497 10.48784 36207 ft 419 kts 303°
2026-04-30 02:53 46.32486 10.41602 36204 ft 420 kts 303°
2026-04-30 02:53 46.35493 10.34352 36205 ft 420 kts 302°
2026-04-30 02:54 46.38493 10.27068 36216 ft 421 kts 302°
2026-04-30 02:54 46.41488 10.19767 36219 ft 422 kts 302°
2026-04-30 02:55 46.44493 10.12454 36222 ft 423 kts 302°
2026-04-30 02:55 46.47526 10.05135 36234 ft 422 kts 306°
2026-04-30 02:56 46.51287 9.98629 36239 ft 421 kts 313°
2026-04-30 02:56 46.55176 9.92238 36238 ft 422 kts 313°
2026-04-30 02:57 46.59064 9.85844 36237 ft 423 kts 313°
2026-04-30 02:57 46.62955 9.79421 36234 ft 423 kts 313°
2026-04-30 02:57 46.64898 9.76206 36038 ft 424 kts 313°
2026-04-30 02:58 46.66846 9.72976 35779 ft 424 kts 313°
2026-04-30 02:58 46.68795 9.69737 35533 ft 425 kts 313°
2026-04-30 02:58 46.70741 9.66498 35276 ft 426 kts 313°
2026-04-30 02:58 46.72669 9.63292 35030 ft 426 kts 313°
2026-04-30 02:59 46.74629 9.60040 34782 ft 427 kts 313°
2026-04-30 02:59 46.76592 9.56787 34538 ft 428 kts 313°
2026-04-30 02:59 46.78556 9.53524 34290 ft 428 kts 314°
2026-04-30 02:59 46.80542 9.50214 34026 ft 429 kts 314°
2026-04-30 03:00 46.82494 9.46954 33755 ft 430 kts 314°
2026-04-30 03:00 46.84454 9.43674 33497 ft 431 kts 313°
2026-04-30 03:00 46.86451 9.40322 33213 ft 432 kts 314°
2026-04-30 03:00 46.88430 9.36992 32938 ft 432 kts 314°
2026-04-30 03:01 46.90386 9.33691 32676 ft 431 kts 314°
2026-04-30 03:01 46.92350 9.30378 32410 ft 430 kts 314°
2026-04-30 03:01 46.94307 9.27077 32151 ft 428 kts 314°
2026-04-30 03:01 46.96263 9.23775 31890 ft 427 kts 314°
2026-04-30 03:02 46.98183 9.20531 31631 ft 425 kts 314°
2026-04-30 03:02 47.00112 9.17272 31373 ft 424 kts 314°
2026-04-30 03:02 47.02069 9.13967 31121 ft 423 kts 314°
2026-04-30 03:02 47.03991 9.10708 30870 ft 421 kts 314°
2026-04-30 03:03 47.05904 9.07456 30627 ft 420 kts 314°
2026-04-30 03:03 47.09667 9.01048 30128 ft 418 kts 314°
2026-04-30 03:03 47.11557 8.97823 29835 ft 417 kts 314°
2026-04-30 03:04 47.13454 8.94589 29558 ft 416 kts 314°
2026-04-30 03:04 47.15464 8.91527 29275 ft 411 kts 322°
2026-04-30 03:04 47.17711 8.89015 28922 ft 403 kts 331°
2026-04-30 03:04 47.20098 8.86918 28400 ft 398 kts 333°
2026-04-30 03:05 47.22477 8.84850 27885 ft 393 kts 333°
2026-04-30 03:05 47.24816 8.82805 27393 ft 390 kts 333°
2026-04-30 03:05 47.27131 8.80773 26894 ft 386 kts 333°
2026-04-30 03:05 47.29436 8.78744 26407 ft 383 kts 333°
2026-04-30 03:06 47.31707 8.76737 25929 ft 380 kts 333°
2026-04-30 03:06 47.33971 8.74738 25472 ft 377 kts 333°
2026-04-30 03:06 47.36214 8.72760 25012 ft 375 kts 333°
2026-04-30 03:06 47.38442 8.70795 24562 ft 372 kts 333°
2026-04-30 03:07 47.40659 8.68843 24116 ft 369 kts 333°
2026-04-30 03:07 47.42856 8.66907 23673 ft 367 kts 333°
2026-04-30 03:07 47.45038 8.64979 23206 ft 363 kts 333°
2026-04-30 03:07 47.47192 8.63076 22782 ft 358 kts 333°
2026-04-30 03:08 47.49317 8.61193 22369 ft 354 kts 333°
2026-04-30 03:08 47.51424 8.59323 21947 ft 351 kts 333°
2026-04-30 03:08 47.53533 8.57450 21519 ft 348 kts 333°
2026-04-30 03:08 47.55592 8.55623 21103 ft 345 kts 333°
2026-04-30 03:09 47.57651 8.53796 20667 ft 342 kts 333°
2026-04-30 03:09 47.59666 8.52005 20246 ft 341 kts 333°
2026-04-30 03:09 47.61712 8.50182 19816 ft 339 kts 333°
2026-04-30 03:09 47.63733 8.48378 19374 ft 338 kts 333°
2026-04-30 03:10 47.65759 8.46567 18932 ft 338 kts 333°
2026-04-30 03:10 47.67748 8.44701 18505 ft 339 kts 327°
2026-04-30 03:10 47.69527 8.42307 18239 ft 352 kts 315°
2026-04-30 03:10 47.71021 8.39399 18245 ft 359 kts 309°
2026-04-30 03:11 47.72485 8.36352 18268 ft 361 kts 309°
2026-04-30 03:11 47.73948 8.33320 18257 ft 361 kts 309°
2026-04-30 03:11 47.75393 8.30321 18264 ft 361 kts 309°
2026-04-30 03:11 47.76871 8.27248 18209 ft 361 kts 309°
2026-04-30 03:12 47.78327 8.24221 17300 ft 371 kts 309°
2026-04-30 03:12 47.79861 8.21036 16561 ft 376 kts 309°
2026-04-30 03:12 47.81361 8.17913 16015 ft 375 kts 309°
2026-04-30 03:12 47.82867 8.14773 15492 ft 374 kts 309°
2026-04-30 03:13 47.84379 8.11615 14968 ft 373 kts 309°
2026-04-30 03:13 47.85877 8.08477 14518 ft 370 kts 309°
2026-04-30 03:13 47.87358 8.05365 14186 ft 364 kts 309°
2026-04-30 03:13 47.88813 8.02305 13851 ft 359 kts 309°
2026-04-30 03:14 47.90241 7.99294 13522 ft 352 kts 308°
2026-04-30 03:14 47.91642 7.96344 13213 ft 347 kts 308°
2026-04-30 03:14 47.93033 7.93415 12890 ft 343 kts 308°
2026-04-30 03:14 47.94402 7.90527 12602 ft 341 kts 308°
2026-04-30 03:15 47.95774 7.87628 12300 ft 340 kts 308°
2026-04-30 03:15 47.97123 7.84762 12001 ft 338 kts 307°
2026-04-30 03:15 47.98467 7.81907 11705 ft 337 kts 308°
2026-04-30 03:15 47.99822 7.79032 11401 ft 336 kts 308°
2026-04-30 03:16 48.01163 7.76182 11099 ft 334 kts 307°
2026-04-30 03:16 48.02496 7.73341 10803 ft 333 kts 307°
2026-04-30 03:16 48.03819 7.70524 10542 ft 329 kts 307°
2026-04-30 03:16 48.05107 7.67776 10421 ft 316 kts 307°
2026-04-30 03:17 48.06336 7.65158 10266 ft 307 kts 307°
2026-04-30 03:17 48.07566 7.62541 10093 ft 303 kts 307°
2026-04-30 03:17 48.08742 7.59930 9805 ft 302 kts 300°
2026-04-30 03:17 48.09397 7.57005 9524 ft 301 kts 277°
2026-04-30 03:18 48.09285 7.53927 9227 ft 295 kts 254°
2026-04-30 03:18 48.08440 7.51207 8942 ft 286 kts 231°
2026-04-30 03:18 48.07021 7.49180 8660 ft 276 kts 209°
2026-04-30 03:18 48.05286 7.48055 8381 ft 266 kts 190°
2026-04-30 03:19 48.03503 7.47442 8099 ft 260 kts 189°
2026-04-30 03:19 48.01769 7.46852 7920 ft 252 kts 189°
2026-04-30 03:19 48.00063 7.46272 7559 ft 251 kts 189°
2026-04-30 03:19 47.98335 7.45684 6997 ft 259 kts 189°
2026-04-30 03:20 47.96586 7.45087 6522 ft 262 kts 189°
2026-04-30 03:20 47.94799 7.44476 6061 ft 264 kts 189°
2026-04-30 03:20 47.92987 7.43854 5624 ft 264 kts 188°
2026-04-30 03:20 47.91220 7.43246 5255 ft 262 kts 188°
2026-04-30 03:21 47.89498 7.42650 5193 ft 247 kts 188°
2026-04-30 03:21 47.87884 7.42092 5136 ft 234 kts 187°
2026-04-30 03:21 47.86319 7.41557 5060 ft 225 kts 187°
2026-04-30 03:21 47.84834 7.41047 4975 ft 214 kts 187°
2026-04-30 03:22 47.83413 7.40561 4894 ft 207 kts 187°
2026-04-30 03:22 47.82035 7.40088 4848 ft 196 kts 187°
2026-04-30 03:22 47.80746 7.39644 4744 ft 183 kts 186°
2026-04-30 03:22 47.79547 7.39308 4661 ft 167 kts 176°
2026-04-30 03:23 47.78469 7.39496 4523 ft 149 kts 152°
2026-04-30 03:23 47.77522 7.40064 4334 ft 145 kts 150°
2026-04-30 03:23 47.76608 7.40655 4145 ft 144 kts 150°
2026-04-30 03:23 47.75689 7.41276 3956 ft 144 kts 149°
2026-04-30 03:24 47.74776 7.41905 3759 ft 145 kts 150°
2026-04-30 03:24 47.73866 7.42538 3567 ft 145 kts 150°
2026-04-30 03:24 47.73268 7.42955 3445 ft 145 kts 150°
2026-04-30 03:24 47.72347 7.43598 3242 ft 145 kts 150°
2026-04-30 03:25 47.71130 7.44449 2983 ft 148 kts 151°
2026-04-30 03:25 47.70497 7.44892 2845 ft 149 kts 151°
2026-04-30 03:25 47.69561 7.45546 2637 ft 149 kts 152°
2026-04-30 03:25 47.68314 7.46418 2372 ft 150 kts 152°
2026-04-30 03:26 47.67364 7.47081 2163 ft 151 kts 152°
2026-04-30 03:26 47.66408 7.47749 1947 ft 152 kts 152°
2026-04-30 03:26 47.65772 7.48193 1798 ft 152 kts 153°
2026-04-30 03:26 47.64817 7.48859 1572 ft 152 kts 154°
2026-04-30 03:27 47.63861 7.49526 1365 ft 151 kts 155°
2026-04-30 03:27 47.62910 7.50192 1152 ft 151 kts 155°
2026-04-30 03:27 47.61966 7.50857 983 ft 150 kts 155°
2026-04-30 03:27 47.61036 7.51522 878 ft 143 kts 154°
2026-04-30 03:28 47.60263 7.52035 888 ft 98 kts 154°
2026-04-30 03:28 47.59815 7.52349 888 ft 38 kts 154°
2026-04-30 03:28 47.59588 7.52504 888 ft 33 kts 154°
2026-04-30 03:28 47.59430 7.52640 890 ft 6 kts 115°
2026-04-30 03:29 47.59444 7.52717 890 ft 12 kts 66°
2026-04-30 03:29 47.59465 7.52790 890 ft 0 kts 65°
2026-04-30 03:29 47.59466 7.52791 890 ft 0 kts 65°
2026-04-30 03:31 47.59478 7.52829 890 ft 9 kts 65°
2026-04-30 03:31 47.59537 7.52835 890 ft 13 kts 333°
2026-04-30 03:31 47.59617 7.52911 890 ft 20 kts 66°
2026-04-30 03:31 47.59674 7.53092 890 ft 15 kts 63°
2026-04-30 03:32 47.59733 7.53114 890 ft 5 kts 20°
2026-04-30 03:32 47.59737 7.53133 890 ft 1 kts 71°
2026-04-30 03:32 47.59740 7.53143 890 ft 1 kts 66°
2026-04-30 03:32 47.59747 7.53165 890 ft 4 kts 65°
2026-04-30 03:33 47.59757 7.53198 890 ft 0 kts 64°
2026-04-30 03:33 47.59757 7.53199 890 ft 0 kts 64°